パンスターズ彗星

C/2012 K1 ( PanSTARRS )

English version
Home page
Updated on March 25, 2017

---------------------------------------------------------------------

・ プロフィール

発見日 2012年5月19日
発見光度 19.7等
発見者 Pan-STARRS 1 telescope (Haleakala)

・ 写真集

・ 軌道要素

Epoch 2014 Aug. 11.0 TT = JDT 2456880.5
T 2014 Aug. 27.65581 TT                                 MPCW
q   1.0545573            (2000.0)            P               Q
z  -0.0001537      Peri.  203.10559     -0.47153284     +0.78070312
                   Node   317.73797     +0.87390718     +0.47595619
e   1.0001621      Incl.  142.42835     +0.11808058     -0.40493005
From 6723 observations 2012 May 14-2016 July 30, mean residual 0".5.
     Nongravitational parameters A1 = +1.85, A2 = +0.0831.

・ 星図

・ 光度変化

        m1 = 5.5 + 5 logΔ +  8.5 log r(t + 15)  [  ,30]  (              〜2014年 9月26日)
        m1 = 5.8 + 5 logΔ + 10.0 log r          [30,  ]  (2014年 9月26日〜              )

---------------------------------------------------------------------

軌道要素はM.P.E.C. 2017-E59に掲載されたものです。
星図はステラナビゲータ Ver.8 (アストロアーツ) で作成したものです。
光度グラフはComet for Windowsで作成したものです。

---------------------------------------------------------------------

Copyright(C) Seiichi Yoshida (comet@aerith.net). All rights reserved.